Ortonville, MN

4:03 AM CDT on March 23, 2017 (GMT -0500)
Ortonville Municipal-Martinson

Weather History for KVVV - February, 2014

Change the Weather History Date:

Sunday, February 2, 2014

  Actual Average (KAQP) Record (KAQP)
Temperature  
Mean Temperature 4 °F -  
Max Temperature 15 °F 22 °F 44 °F (2012)
Min Temperature -7 °F 5 °F -22 °F (2001)
Degree Days  
Heating Degree Days 61    
Moisture  
Dew Point -3 °F    
Average Humidity 72    
Maximum Humidity 85    
Minimum Humidity 53    
Precipitation  
Precipitation 0.00 in - - ()
Sea Level Pressure  
Sea Level Pressure 30.17 in    
Wind  
Wind Speed 5 mph (SSW)    
Max Wind Speed 12 mph    
Max Gust Speed -    
Visibility 10 miles    
Events      
Averages and records for this station are not official NWS values.
T = Trace of Precipitation, MM = Missing Value Source: NWS Daily Summary

Daily Weather History Graph

Daily Weather History Graph

Search for Another Location

Airport or City:

Trip Planner

Search our weather history database for the weather conditions in past years. The results will help you decide how hot, cold, wet, or windy it might be!

Date:

Astronomy

Feb. 02, 2014 Rise Set
Actual Time 7:44 AM CST 5:34 PM CST
Civil Twilight 7:13 AM CST 6:05 PM CST
Nautical Twilight 6:38 AM CST 6:41 PM CST
Astronomical Twilight 6:03 AM CST 7:15 PM CST
Moon 9:00 AM CST (2/2) 9:32 PM CST (2/2)
Length of Visible Light 10h 52m
Length of Day
9h 49m
Waxing Crescent, 11% of the Moon is Illuminated
Feb 2
Waxing Crescent
Feb 6
First Quarter
Feb 14
Full
Feb 22
Last Quarter
Mar 1
New

Hourly Weather History & Observations

Time (CST) Temp. Windchill Dew Point Humidity Pressure Visibility Wind Dir Wind Speed Gust Speed Precip Events Conditions
12:14 AM -2.2 °F -12.5 °F -7.6 °F 78% 30.22 in 10.0 mi West 4.6 mph - N/A   Mostly Cloudy
12:33 AM -2.2 °F -12.5 °F -7.6 °F 78% 30.23 in 10.0 mi West 4.6 mph - N/A   Mostly Cloudy
12:54 AM -2.2 °F -10.4 °F -7.6 °F 78% 30.22 in 10.0 mi West 3.5 mph - N/A   Mostly Cloudy
1:14 AM -2.2 °F - -7.6 °F 78% 30.22 in 10.0 mi Calm Calm - N/A   Scattered Clouds
1:34 AM -0.4 °F -8.3 °F -5.8 °F 78% 30.21 in 10.0 mi West 3.5 mph - N/A   Clear
1:54 AM -2.2 °F -14.2 °F -7.6 °F 78% 30.21 in 10.0 mi WSW 5.8 mph - N/A   Scattered Clouds
2:13 AM -2.2 °F -12.5 °F -7.6 °F 78% 30.22 in 10.0 mi WSW 4.6 mph - N/A   Overcast
2:34 AM -0.4 °F -12.0 °F -7.6 °F 72% 30.22 in 10.0 mi WSW 5.8 mph - N/A   Mostly Cloudy
2:54 AM -2.2 °F -12.5 °F -7.6 °F 78% 30.22 in 10.0 mi WSW 4.6 mph - N/A   Clear
3:13 AM -4.0 °F -14.6 °F -9.4 °F 78% 30.22 in 10.0 mi SW 4.6 mph - N/A   Clear
3:34 AM -2.2 °F -15.6 °F -7.6 °F 78% 30.22 in 10.0 mi WSW 6.9 mph - N/A   Clear
3:53 AM -2.2 °F -15.6 °F -7.6 °F 78% 30.22 in 10.0 mi West 6.9 mph - N/A   Clear
4:14 AM -2.2 °F -15.6 °F -7.6 °F 78% 30.21 in 10.0 mi West 6.9 mph - N/A   Clear
4:34 AM -2.2 °F -12.5 °F -7.6 °F 78% 30.22 in 10.0 mi WSW 4.6 mph - N/A   Clear
4:53 AM -2.2 °F -10.4 °F -7.6 °F 78% 30.22 in 10.0 mi WSW 3.5 mph - N/A   Clear
5:14 AM -2.2 °F - -7.6 °F 78% 30.22 in 10.0 mi Calm Calm - N/A   Clear
5:34 AM -2.2 °F - -7.6 °F 78% 30.22 in 10.0 mi Calm Calm - N/A   Clear
5:53 AM -2.2 °F - -7.6 °F 78% 30.21 in 10.0 mi Calm Calm - N/A   Clear
6:14 AM -4.0 °F - -7.6 °F 85% 30.21 in 10.0 mi Calm Calm - N/A   Clear
6:34 AM -4.0 °F - -7.6 °F 85% 30.21 in 10.0 mi Calm Calm - N/A   Clear
6:53 AM -2.2 °F -12.5 °F -7.6 °F 78% 30.21 in 10.0 mi WSW 4.6 mph - N/A   Clear
7:14 AM -4.0 °F -16.3 °F -7.6 °F 85% 30.21 in 10.0 mi West 5.8 mph - N/A   Mostly Cloudy
7:34 AM -4.0 °F - -7.6 °F 85% 30.21 in 10.0 mi Calm Calm - N/A   Scattered Clouds
7:53 AM -7.6 °F - -11.2 °F 84% 30.21 in 7.0 mi Calm Calm - N/A   Clear
8:14 AM -4.0 °F -14.6 °F -9.4 °F 78% 30.21 in 10.0 mi SSW 4.6 mph - N/A   Clear
8:33 AM -2.2 °F -14.2 °F -7.6 °F 78% 30.21 in 10.0 mi SW 5.8 mph - N/A   Clear
8:54 AM -2.2 °F -14.2 °F -5.8 °F 85% 30.21 in 10.0 mi SSW 5.8 mph - N/A   Clear
9:14 AM -0.4 °F -13.4 °F -5.8 °F 78% 30.21 in 10.0 mi SW 6.9 mph - N/A   Clear
9:33 AM -0.4 °F -8.3 °F -5.8 °F 78% 30.21 in 10.0 mi SW 3.5 mph - N/A   Clear
9:54 AM 3.2 °F -4.2 °F -4.0 °F 72% 30.20 in 10.0 mi SW 3.5 mph - N/A   Clear
10:13 AM 3.2 °F -4.2 °F -2.2 °F 78% 30.20 in 10.0 mi SW 3.5 mph - N/A   Clear
10:34 AM 6.8 °F - -2.2 °F 67% 30.20 in 10.0 mi Calm Calm - N/A   Clear
10:54 AM 8.6 °F - -2.2 °F 62% 30.20 in 10.0 mi Calm Calm - N/A   Clear
11:13 AM 10.4 °F 4.0 °F -0.4 °F 62% 30.20 in 10.0 mi SSW 3.5 mph - N/A   Clear
11:34 AM 12.2 °F 1.7 °F -0.4 °F 57% 30.20 in 10.0 mi SW 6.9 mph - N/A   Clear
11:53 AM 12.2 °F -1.0 °F -0.4 °F 57% 30.19 in 10.0 mi WSW 10.4 mph - N/A   Clear
12:14 PM 12.2 °F 0.7 °F 1.4 °F 62% 30.19 in 10.0 mi WSW 8.1 mph - N/A   Clear
12:33 PM 12.2 °F -1.0 °F -0.4 °F 57% 30.18 in 10.0 mi SW 10.4 mph - N/A   Clear
12:54 PM 14.0 °F 3.9 °F 1.4 °F 57% 30.17 in 10.0 mi SW 6.9 mph - N/A   Clear
1:06 PM 14.0 °F 5.1 °F 1.4 °F 57% 30.17 in 10.0 mi SW 5.8 mph - N/A   Clear
1:34 PM 15.8 °F 5.1 °F 1.4 °F 53% 30.16 in 10.0 mi SW 8.1 mph - N/A   Clear
1:54 PM 15.8 °F - 1.4 °F 53% 30.16 in 10.0 mi Calm Calm - N/A   Clear
2:13 PM 15.8 °F 5.1 °F 1.4 °F 53% 30.15 in 10.0 mi South 8.1 mph - N/A   Clear
2:34 PM 15.8 °F 4.2 °F 1.4 °F 53% 30.14 in 10.0 mi South 9.2 mph - N/A   Clear
2:53 PM 15.8 °F 2.7 °F 1.4 °F 53% 30.15 in 10.0 mi South 11.5 mph - N/A   Clear
3:14 PM 15.8 °F 4.2 °F 1.4 °F 53% 30.15 in 10.0 mi South 9.2 mph - N/A   Clear
3:34 PM 15.8 °F 4.2 °F 1.4 °F 53% 30.15 in 10.0 mi South 9.2 mph - N/A   Clear
3:53 PM 15.8 °F 5.1 °F 1.4 °F 53% 30.15 in 10.0 mi South 8.1 mph - N/A   Clear
4:14 PM 15.8 °F 4.2 °F 1.4 °F 53% 30.14 in 10.0 mi South 9.2 mph - N/A   Clear
4:34 PM 15.8 °F 5.1 °F 3.2 °F 58% 30.13 in 10.0 mi SSW 8.1 mph - N/A   Clear
4:53 PM 15.8 °F 4.2 °F 3.2 °F 58% 30.13 in 10.0 mi SSW 9.2 mph - N/A   Clear
5:14 PM 15.8 °F 5.1 °F 3.2 °F 58% 30.13 in 10.0 mi SSW 8.1 mph - N/A   Clear
5:33 PM 12.2 °F -1.0 °F 3.2 °F 67% 30.12 in 10.0 mi South 10.4 mph - N/A   Clear
5:54 PM 12.2 °F 0.7 °F 3.2 °F 67% 30.12 in 10.0 mi South 8.1 mph - N/A   Clear
6:14 PM 8.6 °F -3.7 °F 1.4 °F 73% 30.12 in 10.0 mi SSE 8.1 mph - N/A   Clear
6:33 PM 10.4 °F -1.5 °F 1.4 °F 67% 30.11 in 10.0 mi South 8.1 mph - N/A   Clear
6:54 PM 8.6 °F -1.3 °F 1.4 °F 73% 30.11 in 10.0 mi SE 5.8 mph - N/A   Clear
7:14 PM 6.8 °F -5.9 °F -0.4 °F 72% 30.11 in 10.0 mi SE 8.1 mph - N/A   Clear
7:33 PM 5.0 °F -10.0 °F -0.4 °F 78% 30.10 in 10.0 mi SE 10.4 mph - N/A   Clear
7:54 PM 5.0 °F -9.1 °F -0.4 °F 78% 30.10 in 10.0 mi SE 9.2 mph - N/A   Clear
8:14 PM 5.0 °F -8.1 °F -0.4 °F 78% 30.09 in 10.0 mi SE 8.1 mph - N/A   Clear
8:33 PM 3.2 °F -10.3 °F -0.4 °F 85% 30.10 in 10.0 mi SE 8.1 mph - N/A   Clear
8:54 PM 3.2 °F -12.2 °F -0.4 °F 85% 30.09 in 10.0 mi SE 10.4 mph - N/A   Clear
9:13 PM 3.2 °F -11.3 °F -2.2 °F 78% 30.09 in 10.0 mi SE 9.2 mph - N/A   Clear
9:34 PM 3.2 °F -10.3 °F -2.2 °F 78% 30.09 in 10.0 mi SE 8.1 mph - N/A   Clear
9:54 PM 3.2 °F -9.1 °F -2.2 °F 78% 30.09 in 10.0 mi SE 6.9 mph - N/A   Clear
10:13 PM 3.2 °F -6.2 °F -2.2 °F 78% 30.10 in 10.0 mi SE 4.6 mph - N/A   Clear
10:34 PM 3.2 °F -4.2 °F -2.2 °F 78% 30.09 in 10.0 mi SSE 3.5 mph - N/A   Clear
10:54 PM 1.4 °F -8.3 °F -2.2 °F 85% 30.09 in 10.0 mi SE 4.6 mph - N/A   Clear
11:14 PM -0.4 °F -8.3 °F -4.0 °F 85% 30.10 in 10.0 mi SE 3.5 mph - N/A   Clear
11:34 PM -0.4 °F - -5.8 °F 78% 30.10 in 10.0 mi Calm Calm - N/A   Clear
11:54 PM 1.4 °F - -2.2 °F 85% 30.09 in 10.0 mi Calm Calm - N/A   Clear